Change the Weather History Date:

Thursday, March 21, 2013

  Actual Average Record
Temperature  
Mean Temperature 59 °F 67 °F  
Max Temperature 70 °F 77 °F 90 °F (1921)
Min Temperature 47 °F 58 °F 38 °F (1956)
Degree Days  
Heating Degree Days 6 1  
Month to date heating degree days 105 40  
Since 1 July heating degree days 350 458  
Cooling Degree Days 0 3  
Month to date cooling degree days 14 63  
Year to date cooling degree days 216 167  
Growing Degree Days 11 (Base 50)    
Moisture  
Dew Point 42 °F    
Average Humidity 57    
Maximum Humidity 100    
Minimum Humidity 24    
Precipitation  
Precipitation 0.00 in 0.12 in 1.15 in (1997)
Month to date precipitation 0.87 2.66  
Year to date precipitation 2.01 7.85  
Sea Level Pressure  
Sea Level Pressure 29.94 in    
Wind  
Wind Speed 7 mph (NNW)    
Max Wind Speed 16 mph    
Max Gust Speed 22 mph    
Visibility 10 miles    
Events      
T = Trace of Precipitation, MM = Missing Value Source: NWS Daily Summary

Daily Weather History Graph

Daily Weather History Graph

Search for Another Location

Airport or City:

Trip Planner

Search our weather history database for the weather conditions in past years. The results will help you decide how hot, cold, wet, or windy it might be!

Date:

Astronomy

Mar. 21, 2013 Rise Set
Actual Time 7:32 AM EDT 7:42 PM EDT
Civil Twilight 7:09 AM EDT 8:05 PM EDT
Nautical Twilight 6:42 AM EDT 8:32 PM EDT
Astronomical Twilight 6:15 AM EDT 9:00 PM EDT
Moon 2:35 PM EDT (3/21) 3:27 AM EDT (3/21)
Length of Visible Light 12h 56m
Length of Day
12h 09m
Waxing Gibbous, 68% of the Moon is Illuminated
Mar 21
Waxing Gibbous
Mar 27
Full
Apr 3
Last Quarter
Apr 10
New
Apr 18
First Quarter

Hourly Weather History & Observations

Time (EDT) Temp. Dew Point Humidity Pressure Visibility Wind Dir Wind Speed Gust Speed Precip Events Conditions
12:53 AM 57.9 °F 57.0 °F 97% 29.90 in 10.0 mi NW 8.1 mph - N/A   Partly Cloudy
2:53 AM 59.0 °F 57.0 °F 93% 29.89 in 10.0 mi NNW 8.1 mph - N/A   Clear
3:53 AM 59.0 °F 57.0 °F 93% 29.88 in 10.0 mi NNW 8.1 mph - N/A   Clear
4:53 AM 57.0 °F 53.1 °F 87% 29.89 in 10.0 mi NNW 4.6 mph - N/A   Clear
5:53 AM 57.0 °F 52.0 °F 83% 29.90 in 10.0 mi North 5.8 mph - N/A   Clear
6:53 AM 55.9 °F 48.0 °F 75% 29.91 in 10.0 mi NNE 13.8 mph 18.4 mph N/A   Clear
7:53 AM 53.1 °F 41.0 °F 64% 29.95 in 10.0 mi NNE 5.8 mph - N/A   Clear
8:53 AM 55.9 °F 39.9 °F 55% 29.96 in 10.0 mi NNE 5.8 mph - N/A   Clear
9:53 AM 59.0 °F 36.0 °F 42% 29.97 in 10.0 mi NNE 11.5 mph 17.3 mph N/A   Clear
10:53 AM 64.0 °F 34.0 °F 33% 29.99 in 10.0 mi NE 9.2 mph - N/A   Clear
11:53 AM 64.9 °F 32.0 °F 29% 29.99 in 10.0 mi North 11.5 mph - N/A   Clear
12:53 PM 66.0 °F 30.9 °F 27% 29.98 in 10.0 mi NNW 11.5 mph 19.6 mph N/A   Clear
1:53 PM 66.0 °F 28.9 °F 25% 29.96 in 10.0 mi NNW 4.6 mph 18.4 mph N/A   Clear
2:53 PM 68.0 °F 33.1 °F 27% 29.93 in 10.0 mi NW 10.4 mph - N/A   Clear
3:53 PM 69.1 °F 34.0 °F 27% 29.92 in 10.0 mi North 8.1 mph - N/A   Clear
4:53 PM 68.0 °F 36.0 °F 31% 29.91 in 10.0 mi NNW 10.4 mph 17.3 mph N/A   Clear
5:53 PM 66.9 °F 39.0 °F 36% 29.92 in 10.0 mi NNW 8.1 mph - N/A   Clear
6:53 PM 63.0 °F 41.0 °F 45% 29.92 in 10.0 mi NW 9.2 mph - N/A   Clear
7:53 PM 57.0 °F 42.1 °F 57% 29.94 in 10.0 mi NW 6.9 mph - N/A   Clear
8:53 PM 55.0 °F 42.1 °F 62% 29.95 in 10.0 mi NW 4.6 mph - N/A   Clear
9:53 PM 53.1 °F 44.1 °F 71% 29.96 in 10.0 mi NW 4.6 mph - N/A   Clear
10:53 PM 53.1 °F 43.0 °F 69% 29.96 in 10.0 mi Calm Calm - N/A   Clear
11:53 PM 50.0 °F 42.1 °F 74% 29.95 in 10.0 mi Calm Calm - N/A   Clear